Flag Weather past 2 weeks in Santander, Spain

Now
73 °F

Clear.


Feels Like: 77 °F
Forecast: 58 / 70 °F
Wind: 6 mph from South

Location: Santander / Parayas

Current Time: Oct 31, 2014 at 6:07:07 AM

Latest Report: Oct 31, 2014 at 5:30 AM


Visibility: 10 mi

Pressure: 30.04 "Hg

Humidity: 38%

Dew point: 46 °F

Location of SantanderLocation

Historic Weather in Santander — Graph

°F

Santander temperature yesterday

Maximum temperature yesterday: 73 °F (at 1:00 PM)
Minimum temperature yesterday: 57 °F (at 6:30 AM)
Average temperature yesterday: 65 °F

Past Weeks' High & Low Weather Summary

 TemperatureHumidityPressure
High86 °F (Oct 18, 3:30 PM)100% (Oct 20, 8:00 AM)30.48 "Hg (Oct 20, 8:00 AM)
Low48 °F (Oct 23, 6:30 AM)25% (Oct 18, 4:00 PM)29.62 "Hg (Oct 16, 5:30 PM)
Average66 °F74%30.07 "Hg
* Reported Oct 16 5:30 AM — Oct 31 1:30 AM, Santander, Weather by CustomWeather, © 2014

Note: Actual official high and low records may vary slightly from our data, if they occured in-between our weather recording intervals... More about our weather records

Advertising

Santander weather history for previous 24 hours

 ConditionsComfort  
Time TempWeatherWind HumidityBarometerVisibility
1:30 AM
Oct 31
61 °FClear.2 mph83%30.07 "Hg10 mi
1:00 AM59 °FClear.1 mph88%30.07 "Hg10 mi
12:30 AM59 °FClear.1 mph88%30.07 "Hg10 mi
12:00 AM59 °FClear.No wind88%30.07 "Hg10 mi
11:30 PM
Oct 30
59 °FClear.No wind94%30.07 "Hg10 mi
11:00 PM61 °FClear.3 mph88%30.09 "Hg10 mi
10:30 PM61 °FClear.No wind94%30.09 "Hg4 mi
10:00 PM61 °FClear.No wind94%30.09 "Hg4 mi
9:30 PM63 °FClear.1 mph88%30.07 "Hg5 mi
9:00 PM63 °FClear.1 mph88%30.07 "Hg5 mi
8:30 PM64 °FClear.1 mph94%30.09 "Hg5 mi
8:00 PM64 °FClear.No wind94%30.09 "Hg5 mi
7:30 PM66 °FClear.1 mph88%30.07 "Hg5 mi
7:00 PM66 °FClear.2 mph94%30.07 "Hg6 mi
6:30 PM68 °FClear.1 mph88%30.07 "Hg6 mi
6:00 PM68 °FSunny.No wind83%30.07 "Hg10 mi
5:30 PM70 °FSunny.No wind78%30.07 "Hg10 mi
5:00 PM70 °FSunny.2 mph83%30.07 "Hg10 mi
4:30 PM72 °FSunny.2 mph73%30.07 "Hg10 mi
4:00 PM72 °FPassing clouds.3 mph69%30.07 "HgN/A
3:30 PM72 °FPassing clouds.5 mph78%30.07 "HgN/A
3:00 PM72 °FPassing clouds.3 mph73%30.07 "HgN/A
2:30 PM72 °FPassing clouds.3 mph73%30.07 "HgN/A
2:00 PM70 °FPassing clouds.7 mph73%30.07 "HgN/A
1:30 PM72 °FPassing clouds.5 mph69%30.07 "HgN/A
1:00 PM73 °FSunny.2 mph61%30.07 "Hg10 mi
12:30 PM72 °FSunny.1 mph57%30.09 "Hg10 mi
12:00 PM70 °FSunny.1 mph69%30.09 "Hg10 mi
11:30 AM72 °FSunny.No wind61%30.09 "Hg10 mi
11:00 AM70 °FSunny.No wind57%30.09 "Hg10 mi
10:30 AM66 °FSunny.No wind73%30.09 "Hg10 mi
10:00 AM66 °FSunny.No wind68%30.09 "Hg10 mi
9:30 AM63 °FSunny.2 mph77%30.09 "Hg10 mi
9:00 AM61 °FSunny.No wind83%30.09 "Hg10 mi
8:30 AM57 °FSunny.3 mph94%30.07 "Hg10 mi
8:00 AM57 °FSunny.1 mph88%30.07 "Hg10 mi
7:30 AM57 °FClear.No wind88%30.07 "Hg10 mi
7:00 AM57 °FClear.2 mph94%30.04 "Hg10 mi
6:30 AM57 °FClear.No wind94%30.04 "Hg10 mi
6:00 AM59 °FClear.No wind88%30.04 "Hg10 mi
Weather by CustomWeather, © 2014

See weather overviewHow to use our weather pages